GW0615 Weather Reports


time (UTC)temp
C
wind
direction
speed
KPH
gust
KPH
rain 1hr
cm
rain 24hr
cm
rain mn
cm
humidity
%
barometer
mb
20260507165948 15 90 33.8 48.3 0.00 0.00 0.00 28 1010.5
20260507165438 14 90 37.0 48.3 0.00 0.00 0.00 29 1010.4
20260507164928 15 68 35.4 48.3 0.00 0.00 0.00 28 1010.7
20260507164417 15 90 33.8 48.3 0.00 0.00 0.00 28 1010.9
20260507163908 15 113 32.2 46.7 0.00 0.00 0.00 28 1010.8
20260507163357 15 90 25.7 46.7 0.00 0.00 0.00 30 1010.7
20260507162847 14 68 25.7 46.7 0.00 0.00 0.00 29 1010.9
20260507162337 15 90 29.0 46.7 0.00 0.00 0.00 29 1010.9
20260507161317 15 90 27.4 43.5 0.00 0.00 0.00 30 1011.1
20260507160256 14 90 29.0 43.5 0.00 0.00 0.00 30 1011.4
20260507155747 14 90 25.7 43.5 0.00 0.00 0.00 32 1011.2
20260507155236 14 68 29.0 43.5 0.00 0.00 0.00 32 1011.6
20260507154726 14 90 27.4 40.2 0.00 0.00 0.00 32 1011.5
20260507154216 14 90 29.0 46.7 0.00 0.00 0.00 33 1011.6
20260507153706 13 68 30.6 46.7 0.00 0.00 0.00 33 1011.2
20260507152136 13 90 37.0 54.7 0.00 0.00 0.00 34 1011.5
20260507151626 13 90 40.2 54.7 0.00 0.00 0.00 34 1011.2
20260507150606 12 90 37.0 51.5 0.00 0.00 0.00 35 1011.2
20260507150055 13 90 32.2 49.9 0.00 0.00 0.00 37 1011.1
20260507145034 12 90 37.0 51.5 0.00 0.00 0.00 37 1011.4
20260507144524 12 90 30.6 54.7 0.00 0.00 0.00 37 1011.4
20260507144014 12 90 37.0 54.7 0.00 0.00 0.00 37 1010.9
20260507143504 12 90 32.2 54.7 0.00 0.00 0.00 37 1011.0
20260507142445 12 90 33.8 64.4 0.00 0.00 0.00 36 1011.1
20260507141934 12 90 35.4 64.4 0.00 0.00 0.00 38 1011.2
20260507141425 12 90 41.8 57.9 0.00 0.00 0.00 38 1010.9
20260507140409 12 90 40.2 57.9 0.00 0.00 0.00 40 1010.8
20260507135857 12 113 33.8 57.9 0.00 0.00 0.00 41 1010.6
20260507135354 11 68 41.8 57.9 0.00 0.00 0.00 42 1010.7
20260507134834 11 90 29.0 48.3 0.00 0.00 0.00 44 1011.0
20260507134323 11 90 22.5 48.3 0.00 0.00 0.00 46 1011.2
20260507133814 10 90 27.4 43.5 0.00 0.00 0.00 47 1011.2
20260507133303 10 113 30.6 43.5 0.00 0.00 0.00 47 1011.2
20260507132242 10 90 30.6 51.5 0.00 0.00 0.00 47 1011.0
20260507131732 10 90 35.4 51.5 0.00 0.00 0.00 48 1011.1
20260507131222 10 90 33.8 43.5 0.00 0.00 0.00 49 1010.9
20260507130713 10 90 32.2 46.7 0.00 0.00 0.00 49 1011.0
20260507130203 10 90 27.4 46.7 0.00 0.00 0.00 49 1011.1
20260507125653 10 90 33.8 43.5 0.00 0.00 0.00 50 1011.2
20260507125142 10 90 25.7 43.5 0.00 0.00 0.00 50 1011.7
20260507124632 10 90 24.1 40.2 0.00 0.00 0.00 50 1011.7
20260507123612 9 90 29.0 40.2 0.00 0.00 0.00 51 1011.6
20260507123102 9 113 25.7 40.2 0.00 0.00 0.00 51 1011.6
20260507122044 9 90 24.1 38.6 0.00 0.00 0.00 50 1010.9
20260507121022 9 68 24.1 32.2 0.00 0.00 0.00 51 1011.1
20260507120001 9 68 24.1 38.6 0.00 0.00 0.00 51 1010.9
20260507115451 9 90 24.1 38.6 0.00 0.00 0.00 50 1010.8
20260507114942 9 68 19.3 38.6 0.00 0.00 0.00 50 1010.4
20260507114431 9 68 20.9 33.8 0.00 0.00 0.00 51 1010.6
20260507113921 9 90 20.9 33.8 0.00 0.00 0.00 51 1010.1
20260507113411 9 68 24.1 35.4 0.00 0.00 0.00 51 1010.1
20260507112900 9 68 24.1 37.0 0.00 0.00 0.00 51 1009.7
20260507112351 10 90 29.0 46.7 0.00 0.00 0.00 50 1009.5
20260507111840 10 90 29.0 46.7 0.00 0.00 0.00 49 1009.5
20260507111330 10 68 32.2 40.2 0.00 0.00 0.00 49 1009.2
20260507110821 10 68 27.4 38.6 0.00 0.00 0.00 51 1009.1
20260507110310 10 68 20.9 38.6 0.00 0.00 0.00 52 1009.5
20260507105800 10 113 27.4 38.6 0.00 0.00 0.00 50 1009.7
20260507105249 10 90 27.4 40.2 0.00 0.00 0.00 50 1009.7
20260507104739 10 90 27.4 40.2 0.00 0.00 0.00 50 1009.4
20260507104230 11 90 30.6 43.5 0.00 0.00 0.00 49 1008.7
20260507103719 11 90 27.4 43.5 0.00 0.00 0.00 51 1009.0
20260507103209 11 90 24.1 40.2 0.00 0.00 0.00 52 1009.4
20260507102659 11 90 29.0 40.2 0.00 0.00 0.00 51 1009.5
20260507102149 11 90 30.6 38.6 0.00 0.00 0.00 51 1010.0
20260507101640 11 90 22.5 37.0 0.00 0.00 0.00 53 1009.4
20260507101129 11 90 20.9 37.0 0.00 0.00 0.00 52 1009.6
20260507100620 11 90 25.7 35.4 0.00 0.00 0.00 52 1010.0
20260507100108 11 90 22.5 35.4 0.00 0.00 0.00 51 1010.0
20260507095558 11 90 22.5 35.4 0.00 0.00 0.00 52 1009.8
20260507095048 11 90 20.9 33.8 0.00 0.00 0.00 52 1009.8
20260507094535 12 90 24.1 37.0 0.00 0.00 0.00 52 1010.3
20260507094028 12 90 22.5 37.0 0.00 0.00 0.00 52 1010.0
20260507093518 12 90 27.4 37.0 0.00 0.00 0.00 51 1010.4
20260507093008 12 90 16.1 32.2 0.00 0.00 0.00 52 1009.4
20260507092457 12 90 19.3 29.0 0.00 0.00 0.00 52 1009.6
20260507091948 12 90 16.1 24.1 0.00 0.00 0.00 52 1009.6
20260507091438 12 90 17.7 27.4 0.00 0.00 0.00 51 1009.6
20260507090927 12 90 17.7 32.2 0.00 0.00 0.00 50 1009.4
20260507090417 12 90 17.7 35.4 0.00 0.00 0.00 50 1009.1
20260507085907 12 90 16.1 35.4 0.00 0.00 0.00 50 1008.8
20260507085357 12 90 19.3 35.4 0.00 0.00 0.00 49 1008.8
20260507084846 12 90 20.9 35.4 0.00 0.00 0.00 49 1009.4
20260507084338 12 90 17.7 32.2 0.00 0.00 0.00 50 1009.0
20260507083826 12 90 17.7 32.2 0.00 0.00 0.00 50 1009.1
20260507083316 12 90 22.5 29.0 0.00 0.00 0.00 49 1008.9
20260507082806 12 90 17.7 27.4 0.00 0.00 0.00 52 1009.1
20260507082256 12 90 17.7 22.5 0.00 0.00 0.00 52 1009.0
20260507081747 12 90 11.3 20.9 0.00 0.00 0.00 54 1009.0
20260507081236 12 90 12.9 22.5 0.00 0.00 0.00 53 1008.6
20260507080726 12 90 16.1 22.5 0.00 0.00 0.00 53 1008.7
20260507080216 12 90 12.9 29.0 0.00 0.00 0.00 54 1009.0
20260507075707 12 90 19.3 33.8 0.00 0.00 0.00 53 1009.0
20260507075155 12 68 22.5 37.0 0.00 0.00 0.00 52 1008.9
20260507074646 12 90 19.3 37.0 0.00 0.00 0.00 55 1008.8
20260507074136 13 90 25.7 35.4 0.00 0.00 0.00 55 1009.3
20260507073626 13 90 22.5 35.4 0.00 0.00 0.00 54 1009.4
20260507073115 13 90 17.7 35.4 0.00 0.00 0.00 57 1009.1
20260507072606 13 68 20.9 27.4 0.00 0.00 0.00 58 1009.2
20260507072055 13 68 19.3 32.2 0.00 0.00 0.00 59 1009.4
20260507071545 13 68 19.3 32.2 0.00 0.00 0.00 60 1009.3
20260507070524 13 68 24.1 37.0 0.00 0.00 0.00 61 1009.3
20260507070015 13 68 22.5 37.0 0.00 0.00 0.00 62 1009.1
20260507065504 13 68 19.3 37.0 0.00 0.00 0.00 61 1009.0
20260507064954 13 68 22.5 33.8 0.00 0.00 0.00 61 1009.4
20260507064444 13 68 22.5 35.4 0.00 0.00 0.00 61 1009.3
20260507063935 13 68 24.1 35.4 0.00 0.00 0.00 61 1009.3
20260507063426 13 68 24.1 33.8 0.00 0.00 0.00 61 1009.8
20260507062914 13 90 24.1 33.8 0.00 0.00 0.00 61 1009.8
20260507062406 13 45 19.3 29.0 0.00 0.00 0.00 62 1009.6
20260507061344 14 68 24.1 32.2 0.00 0.00 0.00 61 1009.7
20260507060833 14 68 20.9 32.2 0.00 0.00 0.00 62 1009.8
20260507060323 14 90 20.9 32.2 0.00 0.00 0.00 61 1009.7
20260507055813 14 68 22.5 32.2 0.00 0.00 0.00 61 1010.0
20260507055305 14 90 17.7 27.4 0.00 0.00 0.00 62 1009.6
20260507054753 14 90 24.1 32.2 0.00 0.00 0.00 62 1009.7
20260507054243 14 68 20.9 32.2 0.00 0.00 0.00 62 1009.3
20260507053734 14 90 19.3 27.4 0.00 0.00 0.00 63 1009.4
20260507052713 14 68 16.1 38.6 0.00 0.00 0.00 64 1009.5
20260507052203 15 68 19.3 38.6 0.00 0.00 0.00 64 1009.4
20260507051653 15 90 17.7 27.4 0.00 0.00 0.00 67 1009.4
20260507051143 15 90 19.3 27.4 0.00 0.00 0.00 65 1009.3
20260507050632 15 90 24.1 32.2 0.00 0.00 0.00 65 1008.9
20260507050122 15 90 19.3 32.2 0.00 0.00 0.00 66 1008.8
20260507045612 15 90 17.7 32.2 0.00 0.00 0.00 68 1008.7
20260507045102 15 90 12.9 32.2 0.00 0.00 0.00 72 1008.9
20260507044552 15 90 12.9 27.4 0.00 0.00 0.00 74 1009.0
20260507044042 15 90 17.7 24.1 0.00 0.00 0.00 75 1009.1
20260507043532 15 90 16.1 24.1 0.00 0.00 0.00 75 1009.0
20260507043021 15 90 16.1 20.9 0.00 0.00 0.00 76 1008.8
20260507042001 15 90 9.7 17.7 0.00 0.00 0.00 76 1008.8
20260507041451 15 90 11.3 17.7 0.00 0.00 0.00 76 1008.9
20260507040941 15 90 8.0 17.7 0.00 0.00 0.00 75 1008.8
20260507040431 15 90 9.7 20.9 0.00 0.00 0.00 75 1008.7
20260507035921 15 90 9.7 20.9 0.00 0.00 0.00 75 1008.6
20260507035411 15 90 6.4 20.9 0.00 0.00 0.00 75 1008.6
20260507034350 15 90 11.3 24.1 0.00 0.00 0.00 74 1008.3
20260507033841 16 90 14.5 25.7 0.00 0.00 0.00 74 1008.2
20260507033330 16 90 17.7 27.4 0.00 0.00 0.00 74 1008.1
20260507032820 16 90 17.7 27.4 0.00 0.00 0.00 74 1007.9
20260507032310 16 90 16.1 27.4 0.00 0.00 0.00 75 1007.9
20260507031759 16 90 17.7 25.7 0.00 0.00 0.00 75 1007.5
20260507031250 16 90 17.7 27.4 0.00 0.00 0.00 74 1007.7
20260507030740 16 90 20.9 27.4 0.00 0.00 0.00 73 1007.7
20260507030229 16 90 12.9 22.5 0.00 0.00 0.00 74 1007.9
20260507025720 16 90 14.5 22.5 0.00 0.00 0.00 73 1007.5
20260507025211 16 90 16.1 22.5 0.00 0.00 0.00 72 1007.0
20260507024659 16 90 17.7 24.1 0.00 0.00 0.00 71 1007.4
20260507024150 17 90 12.9 24.1 0.00 0.00 0.00 71 1007.5
20260507023128 17 90 14.5 22.5 0.00 0.00 0.00 71 1007.5
20260507022619 17 90 14.5 22.5 0.00 0.00 0.00 71 1007.7
20260507022108 17 90 12.9 22.5 0.00 0.00 0.00 72 1007.6
20260507021558 17 90 12.9 24.1 0.00 0.00 0.00 71 1008.0
20260507021048 17 68 12.9 24.1 0.00 0.00 0.00 72 1007.9
20260507020544 18 68 17.7 22.5 0.00 0.00 0.00 72 1007.4
20260507020028 18 68 9.7 27.4 0.00 0.00 0.00 72 1007.7
20260507015518 18 68 16.1 32.2 0.00 0.00 0.00 71 1007.5
20260507015008 18 90 14.5 35.4 0.00 0.00 0.00 71 1007.5
20260507014457 18 90 20.9 35.4 0.00 0.00 0.00 71 1007.5
20260507013948 18 90 22.5 35.4 0.00 0.00 0.00 73 1006.5
20260507012927 18 158 11.3 24.1 0.00 0.00 0.00 77 1006.9
20260507012417 18 158 6.4 14.5 0.00 0.00 0.00 79 1006.6
20260507011907 18 158 6.4 17.7 0.00 0.00 0.00 79 1006.4
20260507010848 18 158 14.5 20.9 0.00 0.00 0.00 78 1006.3
20260507004256 19 158 8.0 12.9 0.00 0.00 0.00 78 1006.7
20260507003746 18 158 4.8 12.9 0.00 0.00 0.00 79 1006.6
20260507003236 18 158 9.7 14.5 0.00 0.00 0.00 79 1006.7
20260507002726 18 158 9.7 14.5 0.00 0.00 0.00 79 1006.7
20260507001706 19 158 9.7 17.7 0.00 0.00 0.00 78 1006.6
20260507001156 19 158 12.9 14.5 0.00 0.00 0.00 79 1006.5
20260506235628 18 158 8.0 12.9 0.00 0.00 0.00 81 1006.8
20260506234605 18 158 8.0 12.9 0.00 0.00 0.00 82 1006.4
20260506234056 19 158 6.4 12.9 0.00 0.00 0.00 81 1006.5
20260506233544 19 158 9.7 12.9 0.00 0.00 0.00 81 1006.2
20260506233035 19 158 6.4 12.9 0.00 0.00 0.00 81 1006.2
20260506232525 19 158 6.4 12.9 0.00 0.00 0.00 80 1006.0
20260506232014 19 158 8.0 17.7 0.00 0.00 0.00 80 1005.8
20260506231505 20 158 9.7 22.5 0.00 0.00 0.00 80 1005.9
20260506230957 20 158 11.3 22.5 0.00 0.00 0.00 79 1005.9
20260506230445 20 180 12.9 17.7 0.00 0.00 0.00 78 1005.6
20260506225936 20 180 11.3 17.7 0.00 0.00 0.00 78 1005.3
20260506225425 20 180 9.7 20.9 0.00 0.00 0.00 78 1005.5
20260506224914 20 180 12.9 20.9 0.00 0.00 0.00 79 1005.4
20260506224404 18 225 0.0 0.0 0.00 0.00 0.00 81 1005.3
20260506222834 19 225 0.0 0.0 0.00 0.00 0.00 80 1004.5
20260506222323 19 225 0.0 0.0 0.00 0.00 0.00 80 1004.3
20260506221813 20 225 0.0 0.0 0.00 0.00 0.00 79 1004.0
20260506221303 19 225 0.0 0.0 0.00 0.00 0.00 81 1004.0
20260506220753 20 225 0.0 0.0 0.00 0.00 0.00 80 1003.9
20260506220243 20 225 0.0 11.3 0.00 0.00 0.00 81 1003.9
20260506215732 20 225 0.0 11.3 0.00 0.00 0.00 82 1004.1
20260506214712 18 225 0.0 6.4 0.00 0.00 0.00 82 1003.9
20260506213652 18 225 3.2 6.4 0.00 0.00 0.00 83 1003.4
20260506213142 19 225 4.8 6.4 0.00 0.00 0.00 82 1003.5
20260506212122 21 225 0.0 6.4 0.00 0.00 0.00 76 1003.2
20260506211611 22 225 0.0 0.0 0.00 0.00 0.00 75 1003.3
20260506211102 22 225 0.0 0.0 0.00 0.00 0.00 72 1003.5
20260506210552 23 225 0.0 0.0 0.00 0.00 0.00 70 1003.6
20260506205531 25 225 0.0 3.2 0.00 0.00 0.00 68 1003.0
20260506205021 25 225 0.0 3.2 0.00 0.00 0.00 66 1003.1
20260506204513 25 225 0.0 9.7 0.00 0.00 0.00 66 1003.0
20260506204001 25 225 0.0 12.9 0.00 0.00 0.00 67 1003.0
20260506203451 25 225 6.4 14.5 0.00 0.00 0.00 67 1002.9
20260506202942 25 225 11.3 14.5 0.00 0.00 0.00 67 1002.6
20260506202430 25 225 9.7 17.7 0.00 0.00 0.00 66 1002.5
20260506201410 25 225 12.9 20.9 0.00 0.00 0.00 65 1002.7
20260506200901 25 248 12.9 17.7 0.00 0.00 0.00 65 1002.6
20260506200350 25 248 9.7 17.7 0.00 0.00 0.00 64 1002.6
20260506195331 25 225 12.9 22.5 0.00 0.00 0.00 65 1002.4
20260506194820 25 248 12.9 22.5 0.00 0.00 0.00 66 1002.7
20260506194310 25 248 9.7 20.9 0.00 0.00 0.00 65 1002.7
20260506193251 25 225 12.9 24.1 0.00 0.00 0.00 65 1002.7
20260506192742 25 225 16.1 24.1 0.00 0.00 0.00 66 1002.4
20260506192230 25 248 16.1 22.5 0.00 0.00 0.00 64 1002.6
20260506191722 25 248 14.5 22.5 0.00 0.00 0.00 64 1002.9
20260506190659 25 248 16.1 22.5 0.00 0.00 0.00 65 1002.5
20260506190148 25 270 16.1 22.5 0.00 0.00 0.00 65 1002.9
20260506185639 25 248 12.9 22.5 0.00 0.00 0.00 65 1002.7
20260506185129 25 248 12.9 22.5 0.00 0.00 0.00 64 1002.7
20260506184618 24 248 12.9 22.5 0.00 0.00 0.00 66 1002.6
20260506184108 25 270 12.9 20.9 0.00 0.00 0.00 65 1002.7
20260506183559 25 248 12.9 25.7 0.00 0.00 0.00 66 1002.7
20260506183058 25 248 12.9 25.7 0.00 0.00 0.00 64 1002.6
20260506182538 24 248 9.7 20.9 0.00 0.00 0.00 66 1003.1
20260506182029 25 248 11.3 17.7 0.00 0.00 0.00 64 1003.1
20260506181518 24 270 8.0 17.7 0.00 0.00 0.00 66 1003.1
20260506181008 25 270 9.7 27.4 0.00 0.00 0.00 65 1003.1
20260506175948 25 248 14.5 20.9 0.00 0.00 0.00 63 1003.2
20260506174928 25 270 0.0 17.7 0.00 0.00 0.00 63 1003.5
20260506174417 23 270 4.8 17.7 0.00 0.00 0.00 65 1003.6
20260506173907 24 248 0.0 14.5 0.00 0.00 0.00 65 1003.7
20260506173357 23 248 9.7 17.7 0.00 0.00 0.00 66 1003.9
20260506172848 24 248 8.0 17.7 0.00 0.00 0.00 63 1004.3
20260506172336 24 248 1.6 14.5 0.00 0.00 0.00 66 1004.4
20260506171827 23 248 0.0 14.5 0.00 0.00 0.00 66 1004.3
20260506170806 23 248 6.4 20.9 0.00 0.00 0.00 67 1004.7